[Date Prev][Date Next][Thread Prev][Thread Next] - [Date Index][Thread Index][Author Index]
2 Line ISS Keps 8-28
- Subject: [sarex] 2 Line ISS Keps 8-28
- From: "Dave Larsen PhD" <doc@xxxxxxxxxxx>
- Date: Wed, 28 Aug 2002 06:55:49 -0700
ISS
1 25544U 98067A 02240.47783037 .00036564 00000-0 46724-3 0 897
2 25544 51.6373 50.1790 0016319 192.1487 264.8803 15.58726287215304
----
Via the sarex mailing list at AMSAT.ORG courtesy of AMSAT-NA.
To unsubscribe, send "unsubscribe sarex" to Majordomo@amsat.org
AMSAT Home